(215572) = 2003 FE54 = 2008 AO72

Discovered at Palomar on 2003-03-25 by NEAT.

Orbit

Orbit type: Main Belt

Note: WebGL enabled browser required.

epoch2023-09-13.0
epoch JD2460200.5
perihelion date2019-04-18.95422
perihelion JD2458592.45422
argument of perihelion (°)19.89586
ascending node (°)117.46209
inclination (°)11.53589
eccentricity0.1569616
perihelion distance (AU)2.6611152
Tisserand w.r.t. Jupiter3.2
ΔV w.r.t. Earth (km/sec)10.8
semimajor axis (AU)3.1565765
mean anomaly (°)282.60366
mean daily motion (°/day)0.17574350
aphelion distance (AU)3.652
period (years)5.61
P-vector [x]-0.72950036
P-vector [y]0.59735448
P-vector [z]0.33316190
Q-vector [x]-0.66056172
Q-vector [y]-0.74166329
Q-vector [z]-0.11659232
absolute magnitude15.75
phase slope0.15
uncertainty0
referenceMPEC 2024-A158
observations used453
oppositions16
arc length (days)9841
first opposition used1997
last opposition used2024
residual rms (arc-secs)0.68
perturbers coarse indicatorM-v
perturbers precise indicator003Ek
first observation date used1997-02-02.0
last observation date used2024-01-13.0
computer nameMPCLINUX
JD of orbit computation2456877.727334
perihelion JD uncertainty (days)1.2962E-04
argument of perihelion uncertainty (°)4.0650E-05
ascending node uncertainty (°)2.9366E-05
inclination uncertainty (°)5.3566E-06
eccentricity uncertainty 6.3671E-08
perihelion distance uncertainty (AU)1.9918E-07
Minimum Orbit Intersection Distances (in AU)
for orbit epoch: 2460200.5, reference: E2024-AF8
Mercury2.31577
Venus1.94277
Earth1.67706
Mars1.00671
Jupiter1.42056
Saturn6.08198
Uranus15.7449
Neptune26.4038

Observations

469 total observations over interval: 1997 02 02.31924 – 2024 01 13.151328
These data are available for download (format description).

Date (UT) J2000 RA J2000 Dec Magn Location Ref
1997 02 02.31924 09 26 51.18 +21 04 39.4 19.2 V 691 – Steward Observatory, Kitt Peak-Spacewatch MPS 278594
1997 02 02.35179 09 26 49.64 +21 04 57.0 19.3 V 691 – Steward Observatory, Kitt Peak-Spacewatch MPS 278594
1997 02 02.38603 09 26 47.97 +21 05 14.2 19.3 V 691 – Steward Observatory, Kitt Peak-Spacewatch MPS 278594
2001 12 11.29302 05 00 34.17 +10 46 56.4   704 – Lincoln Laboratory ETS, New Mexico MPS 406955
2001 12 11.30873 05 00 33.28 +10 46 58.6   704 – Lincoln Laboratory ETS, New Mexico MPS 406955
2001 12 11.32382 05 00 32.43 +10 47 01.0   704 – Lincoln Laboratory ETS, New Mexico MPS 406955
2001 12 11.33888 05 00 31.56 +10 47 02.5   704 – Lincoln Laboratory ETS, New Mexico MPS 406955
2001 12 11.35405 05 00 30.74 +10 47 04.3   704 – Lincoln Laboratory ETS, New Mexico MPS 406955
2003 03 12.31596 13 21 05.76 +09 06 50.7 19.0   704 – Lincoln Laboratory ETS, New Mexico MPS 78369
2003 03 12.33072 13 21 05.23 +09 06 58.4 19.1   704 – Lincoln Laboratory ETS, New Mexico MPS 78369
2003 03 12.37024 13 21 03.99 +09 07 16.5 19.2   704 – Lincoln Laboratory ETS, New Mexico MPS 78369
2003 03 25.47955 13 13 16.78 +10 43 48.2 19.9   644 – Palomar Mountain/NEAT MPS 76353
2003 03 25.50076 13 13 15.89 +10 43 56.6 19.8   644 – Palomar Mountain/NEAT MPS 76353
2003 03 25.52203 13 13 14.97 +10 44 05.1 20.4   644 – Palomar Mountain/NEAT MPS 76353
2003 03 27.37142 13 11 58.24 +10 56 32.7 18.9   704 – Lincoln Laboratory ETS, New Mexico MPS 76353
2003 03 27.38536 13 11 57.60 +10 56 37.0 19.2   704 – Lincoln Laboratory ETS, New Mexico MPS 76353
2003 03 27.39869 13 11 57.00 +10 56 42.9 19.5   704 – Lincoln Laboratory ETS, New Mexico MPS 76353
2003 03 27.41129 13 11 56.46 +10 56 48.2 19.5   704 – Lincoln Laboratory ETS, New Mexico MPS 76353
2003 03 27.42369 13 11 56.08 +10 56 53.2 19.0   704 – Lincoln Laboratory ETS, New Mexico MPS 76353
2003 03 31.263440 13 09 11.041 +11 21 13.65 19.62 V 645 – Apache Point-Sloan Digital Sky Survey MPS 175109
2003 03 31.266912 13 09 10.881 +11 21 14.92 20.28   645 – Apache Point-Sloan Digital Sky Survey MPS 175109
2007 12 06.44561 08 55 55.92 +15 57 56.5 20.6 V G96 – Mt. Lemmon Survey MPS 234188
2007 12 06.45275 08 55 56.02 +15 57 57.7 20.3 V G96 – Mt. Lemmon Survey MPS 234188
2007 12 06.46000 08 55 56.10 +15 57 59.0 20.3 V G96 – Mt. Lemmon Survey MPS 234188
2007 12 06.46723 08 55 56.17 +15 57 59.9 20.5 V G96 – Mt. Lemmon Survey MPS 234189
2007 12 30.36037 08 54 01.51 +17 47 29.1 19.8 V 703 – Catalina Sky Survey MPS 234189
2007 12 30.36694 08 54 01.26 +17 47 33.1 19.5 V 703 – Catalina Sky Survey MPS 234189
2007 12 30.37358 08 54 01.11 +17 47 35.3 19.4 V 703 – Catalina Sky Survey MPS 234189
2007 12 30.38015 08 54 00.90 +17 47 38.6 19.4 V 703 – Catalina Sky Survey MPS 234189
2007 12 30.40672 08 54 00.27 +17 47 47.8 19.7 V 691 – Steward Observatory, Kitt Peak-Spacewatch MPS 234189
2007 12 30.42436 08 53 59.81 +17 47 54.7 19.8 V 691 – Steward Observatory, Kitt Peak-Spacewatch MPS 234189
2007 12 30.44200 08 53 59.35 +17 48 01.4 19.7 V 691 – Steward Observatory, Kitt Peak-Spacewatch MPS 234189
2007 12 30.46799 08 53 58.67 +17 48 11.3 19.5   704 – Lincoln Laboratory ETS, New Mexico MPS 244632
2007 12 30.48105 08 53 58.39 +17 48 17.1 19.9   704 – Lincoln Laboratory ETS, New Mexico MPS 244632
2007 12 30.49412 08 53 58.03 +17 48 21.3 19.7   704 – Lincoln Laboratory ETS, New Mexico MPS 244632
2008 01 10.43452 08 48 14.43 +19 05 50.8 19.4 V 703 – Catalina Sky Survey MPS 234189
2008 01 10.44163 08 48 14.11 +19 05 54.8 19.4 V 703 – Catalina Sky Survey MPS 234189
2008 01 10.44868 08 48 13.86 +19 05 57.6 19.6 V 703 – Catalina Sky Survey MPS 234189
2008 01 10.45574 08 48 13.64 +19 06 00.7 19.5 V 703 – Catalina Sky Survey MPS 234189
2008 01 14.28362 08 45 39.02 +19 35 46.6 19.3 V 691 – Steward Observatory, Kitt Peak-Spacewatch MPS 234440
2008 01 14.30126 08 45 38.26 +19 35 55.0 20.3 V 691 – Steward Observatory, Kitt Peak-Spacewatch MPS 234440
2008 01 14.31890 08 45 37.47 +19 36 03.3 19.2 V 691 – Steward Observatory, Kitt Peak-Spacewatch MPS 234440
2008 01 15.21139 08 44 59.45 +19 43 05.5 19.0 r 699 – Lowell Observatory-LONEOS MPS 234440
2008 01 15.23700 08 44 58.31 +19 43 18.5 19.3 r 699 – Lowell Observatory-LONEOS MPS 234440
2008 01 15.26261 08 44 57.15 +19 43 31.1 19.4 r 699 – Lowell Observatory-LONEOS MPS 234440
2008 01 15.28818 08 44 56.06 +19 43 43.6 18.9 r 699 – Lowell Observatory-LONEOS MPS 234440
2008 01 18.29490 08 42 42.27 +20 07 47.3 19.2 V 691 – Steward Observatory, Kitt Peak-Spacewatch MPS 234189
2008 01 18.31330 08 42 41.39 +20 07 56.6 19.2 V 691 – Steward Observatory, Kitt Peak-Spacewatch MPS 234189
2008 01 18.33145 08 42 40.54 +20 08 05.1 19.4 V 691 – Steward Observatory, Kitt Peak-Spacewatch MPS 234189
2008 01 30.22014 08 33 07.20 +21 43 24.0 18.9 V 703 – Catalina Sky Survey MPS 235305
2008 01 30.22686 08 33 06.91 +21 43 27.5 18.8 V 703 – Catalina Sky Survey MPS 235305
2008 01 30.23338 08 33 06.58 +21 43 31.1 19.2 V 703 – Catalina Sky Survey MPS 235305
2008 01 30.23992 08 33 06.22 +21 43 33.7 18.9 V 703 – Catalina Sky Survey MPS 235305
2008 02 01.24644 08 31 27.66 +21 59 06.7 19.1 V G96 – Mt. Lemmon Survey MPS 235305
2008 02 01.25204 08 31 27.37 +21 59 09.2 18.9 V G96 – Mt. Lemmon Survey MPS 235305
2008 02 01.25764 08 31 27.08 +21 59 11.8 19.0 V G96 – Mt. Lemmon Survey MPS 235305
2008 02 01.26316 08 31 26.79 +21 59 14.7 19.0 V G96 – Mt. Lemmon Survey MPS 235305
2008 02 06.19326 08 27 30.06 +22 36 06.1 19.9 V 703 – Catalina Sky Survey MPS 236186
2008 02 06.20137 08 27 29.62 +22 36 08.8 19.3 V 703 – Catalina Sky Survey MPS 236186
2008 02 06.20944 08 27 29.26 +22 36 13.3 18.9 V 703 – Catalina Sky Survey MPS 236186
2008 02 06.21753 08 27 28.87 +22 36 16.9 19.5 V 703 – Catalina Sky Survey MPS 236186
2008 02 12.22939 08 23 00.53 +23 17 47.0 19.7   704 – Lincoln Laboratory ETS, New Mexico MPS 237457
2008 02 12.24154 08 23 00.01 +23 17 51.6 20.2   704 – Lincoln Laboratory ETS, New Mexico MPS 237457
2008 02 12.25370 08 22 59.47 +23 17 55.8 20.4   704 – Lincoln Laboratory ETS, New Mexico MPS 237457
2009 03 02.47127 15 59 34.87 -07 16 21.8 20.7 V 691 – Steward Observatory, Kitt Peak-Spacewatch MPS 278594
2009 03 02.48387 15 59 35.29 -07 16 19.8 20.7 V 691 – Steward Observatory, Kitt Peak-Spacewatch MPS 278594
2009 03 02.49646 15 59 35.66 -07 16 18.0 21.2 V 691 – Steward Observatory, Kitt Peak-Spacewatch MPS 278594
2009 04 29.37431 15 52 33.92 -04 14 22.9 19.9 V 691 – Steward Observatory, Kitt Peak-Spacewatch MPS 285654
2009 04 29.39196 15 52 33.17 -04 14 19.3 19.8 V 691 – Steward Observatory, Kitt Peak-Spacewatch MPS 285654
2009 04 29.40961 15 52 32.42 -04 14 16.5 20.2 V 691 – Steward Observatory, Kitt Peak-Spacewatch MPS 285654
2009 04 29.44608 15 52 30.87 -04 14 10.3   291 – LPL/Spacewatch II MPS 285654
2009 04 29.44977 15 52 30.72 -04 14 09.8   291 – LPL/Spacewatch II MPS 285654
2009 04 29.45343 15 52 30.55 -04 14 09.0   291 – LPL/Spacewatch II MPS 285654
2009 05 14.42869 15 41 03.27 -03 41 53.5 19.9 V 691 – Steward Observatory, Kitt Peak-Spacewatch MPS 286417
2009 05 14.44628 15 41 02.41 -03 41 51.9 19.9 V 691 – Steward Observatory, Kitt Peak-Spacewatch MPS 286417
2009 05 14.46388 15 41 01.53 -03 41 49.8 20.3 V 691 – Steward Observatory, Kitt Peak-Spacewatch MPS 286417
2009 05 17.25649 15 38 47.36 -03 38 27.7 20.2 V 691 – Steward Observatory, Kitt Peak-Spacewatch MPS 286875
2009 05 17.27413 15 38 46.50 -03 38 26.2 20.0 V 691 – Steward Observatory, Kitt Peak-Spacewatch MPS 286875
2009 05 17.29178 15 38 45.61 -03 38 25.7 20.2 V 691 – Steward Observatory, Kitt Peak-Spacewatch MPS 286875
2009 05 26.37779 15 31 37.20 -03 34 14.4 20.5 V 691 – Steward Observatory, Kitt Peak-Spacewatch MPS 287365
2009 05 26.39541 15 31 36.37 -03 34 14.6 20.7 V 691 – Steward Observatory, Kitt Peak-Spacewatch MPS 287365
2009 05 26.41049 15 31 35.69 -03 34 14.4 20.4 V 691 – Steward Observatory, Kitt Peak-Spacewatch MPS 287365
2010 04 22.750853 20 18 09.686 -17 05 52.80   C51 – WISE MPS 903542
2010 04 22.883157 20 18 14.107 -17 05 45.71   C51 – WISE MPS 903543
2010 04 23.01546 20 18 18.57 -17 05 37.1   C51 – WISE MPS 326246
2010 04 23.213981 20 18 25.23 -17 05 26.5   C51 – WISE MPS 326246
2010 04 23.610895 20 18 38.467 -17 05 07.55   C51 – WISE MPS 903543
